Superferry II — SWKV — position and weather

sailwx.info

Track history (hours):
 
Tides and Currents Weather Stations Pressure Air Temp Water Temp Dewpoint Dewpoint Depression Visibility Wind Speed Wind Dir Waves Ship Positions

Superferry II

Last reported at 2014-Jul-28 12:34 UTC. Time now 2014-Jul-28 14:35 UTC.
Position N 37°40' E 024°56'.

Length 122 m; draft 4.7 m.

Type: Passenger vessel. MMSI: 237001000.

Date/timePositionNaut miles runAvg speedWind from/ knotsBaromVisibWave heightAir tempDewpointWater temp
2014-Jul-28 12:34N 37°40' E 024°56'1313.1
2014-Jul-28 11:33N 37°32' E 025°09'9 9.1
2014-Jul-28 10:33N 37°28' E 025°19'1 1.2
2014-Jul-28 09:33N 37°28' E 025°18'1313.0
2014-Jul-28 08:33N 37°35' E 025°04'48 4.0
2014-Jul-27 20:33N 37°59' E 024°11'2018.8
2014-Jul-27 19:29N 37°53' E 024°35'25 8.3
2014-Jul-27 16:31N 38°00' E 024°05'4710.9
2014-Jul-27 12:14N 37°39' E 024°58'1116.4
2014-Jul-27 11:33N 37°32' E 025°09'9 9.1
2014-Jul-27 10:33N 37°28' E 025°19'5 5.1
2014-Jul-27 09:33N 37°29' E 025°13'64 3.7
2014-Jul-26 16:18N 38°01' E 024°02'5815.4
2014-Jul-26 12:33N 37°33' E 025°06'1111.4
2014-Jul-26 11:33N 37°28' E 025°19'0 0.1
2014-Jul-26 10:33N 37°28' E 025°19'9 8.9
2014-Jul-26 09:32N 37°32' E 025°09'5914.3
2014-Jul-26 05:25N 38°00' E 024°04'10 0.8
2014-Jul-25 17:20N 37°58' E 024°16'11 6.1
2014-Jul-25 15:29N 38°01' E 024°02'4915.2
2014-Jul-25 12:15N 37°39' E 024°58'1115.8
2014-Jul-25 11:33N 37°32' E 025°09'9 9.1
2014-Jul-25 10:33N 37°28' E 025°19'9 8.9
2014-Jul-25 09:31N 37°32' E 025°09'52 3.9
2014-Jul-24 20:15N 37°58' E 024°13'9 2.4
2014-Jul-24 16:33N 38°01' E 024°02'0 0.1
2014-Jul-24 15:33N 38°01' E 024°02'5315.4
2014-Jul-24 12:08N 37°37' E 025°01'813.8
2014-Jul-24 11:33N 37°32' E 025°09'9 9.1
2014-Jul-24 10:33N 37°28' E 025°19'6 5.6
2014-Jul-24 09:33N 37°30' E 025°13'6414.9
2014-Jul-24 05:16N 38°01' E 024°03'3 0.2
2014-Jul-23 15:32N 38°00' E 024°06'2318.1
2014-Jul-23 14:15N 37°54' E 024°34'2311.8
2014-Jul-23 12:18N 37°39' E 024°57'1215.9
2014-Jul-23 11:32N 37°32' E 025°09'9 9.2
2014-Jul-23 10:33N 37°28' E 025°19'0 0.0
2014-Jul-23 09:32N 37°28' E 025°19'1212.0
2014-Jul-23 08:30N 37°34' E 025°06'55 3.2
2014-Jul-22 15:24N 38°01' E 024°05'4614.7
2014-Jul-22 12:15N 37°39' E 024°57'1217.2
2014-Jul-22 11:33N 37°32' E 025°09'9 8.9
2014-Jul-22 10:32N 37°28' E 025°19'1 1.5
2014-Jul-22 09:33N 37°28' E 025°18'1211.6
2014-Jul-22 08:33N 37°34' E 025°05'53 4.4
2014-Jul-21 20:23N 38°00' E 024°07'218.7
2014-Jul-21 20:18N 37°60' E 024°09'3 0.9
2014-Jul-21 16:34N 38°00' E 024°05'6 4.6
2014-Jul-21 15:19N 37°59' E 024°11'4313.9
2014-Jul-21 12:14N 37°38' E 024°59'1014.3
2014-Jul-21 11:32N 37°32' E 025°09'9 9.3
2014-Jul-21 10:33N 37°28' E 025°19'2 2.4
2014-Jul-21 09:33N 37°28' E 025°16'1312.6
2014-Jul-21 08:33N 37°35' E 025°03'4 0.2
2014-Jul-20 12:13N 37°38' E 024°59'1015.0
2014-Jul-20 11:33N 37°32' E 025°09'9 9.2
2014-Jul-20 10:33N 37°28' E 025°19'2 2.2
2014-Jul-20 09:32N 37°28' E 025°17'1312.8
2014-Jul-20 08:33N 37°35' E 025°03'4 0.2
2014-Jul-19 12:33N 37°33' E 025°07'1111.0
2014-Jul-19 11:33N 37°28' E 025°19'0 0.1
2014-Jul-19 10:33N 37°28' E 025°19'9 9.1
2014-Jul-19 09:33N 37°32' E 025°09'5814.3
2014-Jul-19 05:30N 38°00' E 024°05'6 0.7
2014-Jul-18 20:16N 37°58' E 024°13'9 2.5
2014-Jul-18 16:33N 38°01' E 024°02'1 0.5
2014-Jul-18 15:20N 38°01' E 024°03'  
Track history (hours):
 
Tides and Currents Weather Stations Pressure Air Temp Water Temp Dewpoint Dewpoint Depression Visibility Wind Speed Wind Dir Waves Ship Positions

Superferry II

Last reported at 2014-Jul-28 12:34 UTC. Time now 2014-Jul-28 14:35 UTC.
Position N 37°40' E 024°56'.

Length 122 m; draft 4.7 m.

Type: Passenger vessel. MMSI: 237001000.

Date/timePositionNaut miles runAvg speedWind from/ knotsBaromVisibWave heightAir tempDewpointWater temp
2014-Jul-28 12:34N 37°40' E 024°56'1313.1
2014-Jul-28 11:33N 37°32' E 025°09'9 9.1
2014-Jul-28 10:33N 37°28' E 025°19'1 1.2
2014-Jul-28 09:33N 37°28' E 025°18'1313.0
2014-Jul-28 08:33N 37°35' E 025°04'48 4.0
2014-Jul-27 20:33N 37°59' E 024°11'2018.8
2014-Jul-27 19:29N 37°53' E 024°35'25 8.3
2014-Jul-27 16:31N 38°00' E 024°05'4710.9
2014-Jul-27 12:14N 37°39' E 024°58'1116.4
2014-Jul-27 11:33N 37°32' E 025°09'9 9.1
2014-Jul-27 10:33N 37°28' E 025°19'5 5.1
2014-Jul-27 09:33N 37°29' E 025°13'64 3.7
2014-Jul-26 16:18N 38°01' E 024°02'5815.4
2014-Jul-26 12:33N 37°33' E 025°06'1111.4
2014-Jul-26 11:33N 37°28' E 025°19'0 0.1
2014-Jul-26 10:33N 37°28' E 025°19'9 8.9
2014-Jul-26 09:32N 37°32' E 025°09'5914.3
2014-Jul-26 05:25N 38°00' E 024°04'10 0.8
2014-Jul-25 17:20N 37°58' E 024°16'11 6.1
2014-Jul-25 15:29N 38°01' E 024°02'4915.2
2014-Jul-25 12:15N 37°39' E 024°58'1115.8
2014-Jul-25 11:33N 37°32' E 025°09'9 9.1
2014-Jul-25 10:33N 37°28' E 025°19'9 8.9
2014-Jul-25 09:31N 37°32' E 025°09'52 3.9
2014-Jul-24 20:15N 37°58' E 024°13'9 2.4
2014-Jul-24 16:33N 38°01' E 024°02'0 0.1
2014-Jul-24 15:33N 38°01' E 024°02'5315.4
2014-Jul-24 12:08N 37°37' E 025°01'813.8
2014-Jul-24 11:33N 37°32' E 025°09'9 9.1
2014-Jul-24 10:33N 37°28' E 025°19'6 5.6
2014-Jul-24 09:33N 37°30' E 025°13'6414.9
2014-Jul-24 05:16N 38°01' E 024°03'3 0.2
2014-Jul-23 15:32N 38°00' E 024°06'2318.1
2014-Jul-23 14:15N 37°54' E 024°34'2311.8
2014-Jul-23 12:18N 37°39' E 024°57'1215.9
2014-Jul-23 11:32N 37°32' E 025°09'9 9.2
2014-Jul-23 10:33N 37°28' E 025°19'0 0.0
2014-Jul-23 09:32N 37°28' E 025°19'1212.0
2014-Jul-23 08:30N 37°34' E 025°06'55 3.2
2014-Jul-22 15:24N 38°01' E 024°05'4614.7
2014-Jul-22 12:15N 37°39' E 024°57'1217.2
2014-Jul-22 11:33N 37°32' E 025°09'9 8.9
2014-Jul-22 10:32N 37°28' E 025°19'1 1.5
2014-Jul-22 09:33N 37°28' E 025°18'1211.6
2014-Jul-22 08:33N 37°34' E 025°05'53 4.4
2014-Jul-21 20:23N 38°00' E 024°07'218.7
2014-Jul-21 20:18N 37°60' E 024°09'3 0.9
2014-Jul-21 16:34N 38°00' E 024°05'6 4.6
2014-Jul-21 15:19N 37°59' E 024°11'4313.9
2014-Jul-21 12:14N 37°38' E 024°59'1014.3
2014-Jul-21 11:32N 37°32' E 025°09'9 9.3
2014-Jul-21 10:33N 37°28' E 025°19'2 2.4
2014-Jul-21 09:33N 37°28' E 025°16'1312.6
2014-Jul-21 08:33N 37°35' E 025°03'4 0.2
2014-Jul-20 12:13N 37°38' E 024°59'1015.0
2014-Jul-20 11:33N 37°32' E 025°09'9 9.2
2014-Jul-20 10:33N 37°28' E 025°19'2 2.2
2014-Jul-20 09:32N 37°28' E 025°17'1312.8
2014-Jul-20 08:33N 37°35' E 025°03'4 0.2
2014-Jul-19 12:33N 37°33' E 025°07'1111.0
2014-Jul-19 11:33N 37°28' E 025°19'0 0.1
2014-Jul-19 10:33N 37°28' E 025°19'9 9.1
2014-Jul-19 09:33N 37°32' E 025°09'5814.3
2014-Jul-19 05:30N 38°00' E 024°05'6 0.7
2014-Jul-18 20:16N 37°58' E 024°13'9 2.5
2014-Jul-18 16:33N 38°01' E 024°02'1 0.5
2014-Jul-18 15:20N 38°01' E 024°03'  

Dump ship's entire track history